Location: Newark
(45.2500°N, 7.5833°E)
Time: 06:43:09
(UTC+00:00)

A-11 Canister half - Pass Details

Date: 26 January 2020
Orbit: 1524 x 1684 km, 47.3° (Epoch: 20 February)

Event Time Altitude Azimuth Distance (km) Brightness Sun altitude
Rises 20:00:33 0° 276° (W) 4,701 12.5 -37.3°
Reaches altitude 10° 20:03:34 10° 278° (W) 3,733 11.7 -37.8°
Enters shadow 20:12:15 75° 314° (NW) 1,631 9.0 -39.3°
Maximum altitude 20:13:05 81° 6° (N) 1,607 - -39.5°
Drops below altitude 10° 20:22:56 10° 94° (E) 3,854 - -41.1°
Sets 20:26:06 0° 96° (E) 4,861 - -41.7°
